Gunnison, CO

11:33 AM MST on February 11, 2016 (GMT -0700)
Gunnison County

Weather History for KGUC - February, 2013

Change the Weather History Date:

Saturday, February 23, 2013

  Actual Average Record
Temperature  
Mean Temperature 4 °F -  
Max Temperature 19 °F 30 °F 42 °F (2001)
Min Temperature -11 °F 8 °F -11 °F (2006)
Degree Days  
Heating Degree Days 61    
Moisture  
Dew Point 1 °F    
Average Humidity 79    
Maximum Humidity 100    
Minimum Humidity 46    
Precipitation  
Precipitation 0.00 in - - ()
Sea Level Pressure  
Sea Level Pressure 29.88 in    
Wind  
Wind Speed 1 mph (ESE)    
Max Wind Speed 8 mph    
Max Gust Speed -    
Visibility 7 miles    
Events      
Averages and records for this station are not official NWS values.
T = Trace of Precipitation, MM = Missing Value Source: NWS Daily Summary

Daily Weather History Graph

Daily Weather History Graph

Search for Another Location

Airport or City:

Trip Planner

Search our weather history database for the weather conditions in past years. The results will help you decide how hot, cold, wet, or windy it might be!

Date:

Astronomy

Feb. 23, 2013 Rise Set
Actual Time 6:47 AM MST 5:54 PM MST
Civil Twilight 6:20 AM MST 6:21 PM MST
Nautical Twilight 5:50 AM MST 6:52 PM MST
Astronomical Twilight 5:19 AM MST 7:23 PM MST
Moon 4:08 PM MST (2/23) 5:11 AM MST (2/23)
Length of Visible Light 12h 00m
Length of Day
11h 07m
Waxing Gibbous, 95% of the Moon is Illuminated
Feb 23
Waxing Gibbous
Feb 25
Full
Mar 4
Last Quarter
Mar 11
New
Mar 19
First Quarter

Hourly Weather History & Observations

Time (MST) Temp. Windchill Dew Point Humidity Pressure Visibility Wind Dir Wind Speed Gust Speed Precip Events Conditions
12:15 AM 6.8 °F - -0.4 °F 72% 30.02 in 10.0 mi Calm Calm - N/A   Clear
12:55 AM 5.0 °F - 1.4 °F 85% 30.01 in 10.0 mi Calm Calm - N/A   Clear
1:15 AM 3.2 °F - -5.8 °F 66% 30.01 in 10.0 mi Calm Calm - N/A   Mostly Cloudy
1:35 AM 1.4 °F -6.2 °F -2.2 °F 85% 30.01 in 10.0 mi North 3.5 mph - N/A   Mostly Cloudy
1:55 AM -0.4 °F - -7.6 °F 72% 30.01 in 10.0 mi Calm Calm - N/A   Partly Cloudy
2:15 AM 1.4 °F - 1.4 °F 100% 30.00 in 10.0 mi Calm Calm - N/A   Clear
2:35 AM -0.4 °F - -16.6 °F 46% 30.00 in 10.0 mi Calm Calm - N/A   Clear
2:55 AM -0.4 °F - -0.4 °F 100% 30.00 in 10.0 mi Calm Calm - N/A   Clear
3:15 AM 1.4 °F - -7.6 °F 66% 30.00 in 10.0 mi Calm Calm - N/A   Clear
3:35 AM -4.0 °F - -11.2 °F 71% 30.00 in 10.0 mi Calm Calm - N/A   Clear
3:55 AM -2.2 °F -10.4 °F -5.8 °F 85% 30.00 in 10.0 mi South 3.5 mph - N/A   Clear
4:15 AM -5.8 °F - -9.4 °F 84% 29.99 in 10.0 mi Calm Calm - N/A   Clear
4:35 AM -2.2 °F - -4.0 °F 92% 29.99 in 10.0 mi Calm Calm - N/A   Clear
4:55 AM -7.6 °F - -13.0 °F 77% 29.99 in 10.0 mi Calm Calm - N/A   Clear
5:15 AM -7.6 °F - -20.2 °F 54% 29.99 in 10.0 mi Calm Calm - N/A   Clear
5:35 AM -9.4 °F - -9.4 °F 100% 30.00 in 10.0 mi Calm Calm - N/A   Clear
5:55 AM -7.6 °F - -11.2 °F 84% 30.00 in 10.0 mi Calm Calm - N/A   Clear
6:15 AM -7.6 °F - -11.2 °F 84% 30.00 in 10.0 mi Calm Calm - N/A   Clear
6:35 AM -7.6 °F - -7.6 °F 100% 30.00 in 10.0 mi Calm Calm - N/A   Clear
6:55 AM -11.2 °F -23.0 °F -13.0 °F 92% 30.00 in 10.0 mi SE 4.6 mph - N/A   Clear
7:15 AM -11.2 °F - -25.6 °F 49% 30.01 in 10.0 mi Calm Calm - N/A   Clear
7:35 AM -9.4 °F -20.9 °F -11.2 °F 92% 30.01 in 10.0 mi East 4.6 mph - N/A   Partly Cloudy
7:55 AM -7.6 °F - -7.6 °F 100% 30.01 in 10.0 mi Calm Calm - N/A   Clear
8:15 AM -9.4 °F - -20.2 °F 59% 30.02 in 10.0 mi Calm Calm - N/A   Clear
8:35 AM -7.6 °F - -7.6 °F 100% 30.02 in 10.0 mi Calm Calm - N/A   Scattered Clouds
8:55 AM -2.2 °F -10.4 °F -9.4 °F 71% 30.02 in 10.0 mi East 3.5 mph - N/A   Overcast
9:15 AM -0.4 °F -8.3 °F -9.4 °F 66% 30.00 in 10.0 mi East 3.5 mph - N/A   Mostly Cloudy
9:35 AM 1.4 °F - -2.2 °F 85% 30.01 in 10.0 mi Calm Calm - N/A   Mostly Cloudy
9:55 AM 3.2 °F -4.2 °F -2.2 °F 78% 30.01 in 10.0 mi East 3.5 mph - N/A   Overcast
10:15 AM 5.0 °F -2.1 °F -7.6 °F 56% 30.00 in 10.0 mi East 3.5 mph - N/A   Overcast
10:35 AM 6.8 °F - 5.0 °F 92% 29.98 in 5.0 mi Calm Calm - N/A   Overcast
10:55 AM 6.8 °F - -5.8 °F 56% 29.97 in 3.0 mi Calm Calm - N/A   Overcast
11:15 AM 8.6 °F - 6.8 °F 92% 29.96 in 2.0 mi Calm Calm - N/A   Overcast
11:35 AM 8.6 °F - 5.0 °F 85% 29.94 in 3.0 mi Calm Calm - N/A   Overcast
11:55 AM 10.4 °F - -2.2 °F 57% 29.92 in 1.2 mi Calm Calm - N/A   Overcast
12:15 PM 14.0 °F - 10.4 °F 86% 29.91 in 0.8 mi Calm Calm - N/A   Overcast
12:35 PM 12.2 °F - 8.6 °F 85% 29.89 in 0.8 mi Calm Calm - N/A   Overcast
12:55 PM 12.2 °F - 1.4 °F 62% 29.87 in 1.2 mi Calm Calm - N/A   Overcast
1:15 PM 15.8 °F - 5.0 °F 62% 29.85 in 1.2 mi Calm Calm - N/A   Overcast
1:35 PM 15.8 °F - 12.2 °F 86% 29.84 in 0.8 mi Calm Calm - N/A   Overcast
1:55 PM 15.8 °F - 12.2 °F 86% 29.82 in 2.5 mi Calm Calm - N/A   Overcast
2:15 PM 15.8 °F 10.2 °F 10.4 °F 79% 29.81 in 0.8 mi ESE 3.5 mph - N/A   Overcast
2:35 PM 17.6 °F 12.3 °F 8.6 °F 68% 29.80 in 2.5 mi East 3.5 mph - N/A   Overcast
2:55 PM 17.6 °F 10.7 °F 8.6 °F 68% 29.78 in 8.0 mi East 4.6 mph - N/A   Mostly Cloudy
3:15 PM 19.4 °F 10.4 °F 12.2 °F 74% 29.75 in 10.0 mi ENE 6.9 mph - N/A   Partly Cloudy
3:35 PM 19.4 °F 12.8 °F 10.4 °F 68% 29.75 in 10.0 mi NE 4.6 mph - N/A   Clear
3:55 PM 17.6 °F 10.7 °F 10.4 °F 73% 29.74 in 10.0 mi North 4.6 mph - N/A   Mostly Cloudy
4:15 PM 19.4 °F - 8.6 °F 63% 29.74 in 10.0 mi Calm Calm - N/A   Overcast
4:35 PM 17.6 °F 12.3 °F 10.4 °F 73% 29.74 in 2.0 mi SE 3.5 mph - N/A   Overcast
4:55 PM 17.6 °F - 12.2 °F 79% 29.74 in 1.2 mi Calm Calm - N/A   Overcast
5:15 PM 17.6 °F 7.3 °F 14.0 °F 86% 29.75 in 1.5 mi WSW 8.1 mph - N/A   Overcast
5:35 PM 17.6 °F 12.3 °F 15.8 °F 93% 29.74 in 0.8 mi WSW 3.5 mph - N/A   Overcast
5:55 PM 17.6 °F 12.3 °F 12.2 °F 79% 29.74 in 2.0 mi WSW 3.5 mph - N/A   Overcast
6:15 PM 17.6 °F - 10.4 °F 73% 29.74 in 5.0 mi Calm Calm - N/A   Overcast
6:35 PM 15.8 °F - 10.4 °F 79% 29.74 in 5.0 mi Calm Calm - N/A   Mostly Cloudy
6:55 PM 14.0 °F - 8.6 °F 79% 29.74 in 10.0 mi Calm Calm - N/A   Partly Cloudy
7:15 PM 14.0 °F 8.2 °F 8.6 °F 79% 29.74 in 10.0 mi North 3.5 mph - N/A   Clear
7:35 PM 12.2 °F 6.1 °F 10.4 °F 92% 29.73 in 10.0 mi NW 3.5 mph - N/A   Mostly Cloudy
7:55 PM 12.2 °F - 12.2 °F 100% 29.73 in 10.0 mi Calm Calm - N/A   Overcast
8:15 PM 12.2 °F - 8.6 °F 85% 29.72 in 6.0 mi Calm Calm - N/A   Overcast
8:35 PM 12.2 °F - 8.6 °F 85% 29.73 in 8.0 mi Calm Calm - N/A   Overcast
9:15 PM 14.0 °F 8.2 °F 6.8 °F 73% 29.73 in 10.0 mi SW 3.5 mph - N/A   Overcast
9:35 PM 14.0 °F - 8.6 °F 79% 29.71 in 5.0 mi Calm Calm - N/A   Overcast
9:55 PM 14.0 °F - 12.2 °F 93% 29.71 in 3.0 mi Calm Calm - N/A   Overcast
10:15 PM 14.0 °F - 12.2 °F 93% 29.70 in 6.0 mi Calm Calm - N/A   Mostly Cloudy
10:35 PM 12.2 °F - 8.6 °F 85% 29.69 in 9.0 mi Calm Calm - N/A   Mostly Cloudy
10:55 PM 14.0 °F - 8.6 °F 79% 29.69 in 5.0 mi Calm Calm - N/A   Overcast
11:15 PM 14.0 °F - 8.6 °F 79% 29.68 in 3.0 mi Calm Calm - N/A   Overcast
11:35 PM 14.0 °F 8.2 °F 10.4 °F 86% 29.69 in 3.0 mi SW 3.5 mph - N/A   Overcast
11:55 PM 15.8 °F 7.2 °F 12.2 °F 86% 29.70 in 3.0 mi SW 5.8 mph - N/A   Overcast